Location: Sungai Jaoh
(2.9167°N, 113.9167°E)
Time: 05:33:20
(UTC+00:00)

SL-8 R/B - Pass Details

Date: 30 November 2020
Orbit: 656 x 667 km, 48.4° (Epoch: 25 January)

Event Time Altitude Azimuth Distance (km) Brightness Sun altitude
Exits shadow 20:57:07 30° 331° (NNW) 1,167 4.5 -18.8°
Maximum altitude 20:59:25 76° 51° (NE) 684 3.8 -18.2°
Drops below altitude 10° 21:04:13 10° 137° (SE) 2,081 7.3 -17.1°
Sets 21:06:35 0° 138° (SE) 2,996 8.2 -16.6°
